GW1200 Weather Reports


Display with metric or nautical units.
time (UTC)temp
F
wind
direction
speed
MPH
gust
MPH
rain 1hr
in
rain 24hr
in
rain mn
in
humidity
%
barometer
mb
20260505011149 69 187 1.0 1.0 0.00 0.00 0.00 60 4248.0
20260505010148 69 188 0.0 0.0 0.00 0.00 0.00 60 4247.9
20260505005147 70 300 0.0 0.0 0.00 0.00 0.00 58 4247.8
20260505004146 71 303 0.0 0.0 0.00 0.00 0.00 57 4247.7
20260505003141 72 288 0.0 0.0 0.00 0.00 0.00 55 4247.5
20260505002141 73 278 0.0 1.0 0.00 0.00 0.00 52 4247.6
20260505001141 74 306 0.0 0.0 0.00 0.00 0.00 51 4247.4
20260505000136 75 259 1.0 1.0 0.00 0.00 0.00 49 4247.5
20260504235134 76 250 0.0 1.0 0.00 0.00 0.00 48 4247.4
20260504234129 76 205 3.0 3.0 0.00 0.00 0.00 46 4247.6
20260504233126 77 304 2.0 5.0 0.00 0.00 0.00 46 4247.4
20260504232121 77 253 3.0 3.0 0.00 0.00 0.00 47 4247.5
20260504231120 78 297 1.0 2.0 0.00 0.00 0.00 46 4247.4
20260504230115 79 201 3.0 3.0 0.00 0.00 0.00 44 4247.4
20260504225115 79 217 2.0 2.0 0.00 0.00 0.00 46 4247.6
20260504224114 80 333 2.0 5.0 0.00 0.00 0.00 45 4247.5
20260504223113 80 355 1.0 1.0 0.00 0.00 0.00 45 4247.7
20260504222113 80 246 5.0 6.0 0.00 0.00 0.00 44 4247.8
20260504221113 81 247 4.0 5.0 0.00 0.00 0.00 42 4247.6
20260504220113 80 121 6.0 8.0 0.00 0.00 0.00 42 4247.7
20260504215113 81 285 3.0 5.0 0.00 0.00 0.00 41 4247.8
20260504214110 81 250 2.0 3.0 0.00 0.00 0.00 41 4247.5
20260504213110 82 46 2.0 2.0 0.00 0.00 0.00 42 4247.9
20260504212109 80 350 1.0 2.0 0.00 0.00 0.00 43 4248.0
20260504211109 82 298 4.0 7.0 0.00 0.00 0.00 42 4248.0
20260504210108 81 331 3.0 5.0 0.00 0.00 0.00 45 4248.1
20260504205103 81 249 2.0 3.0 0.00 0.00 0.00 42 4248.0
20260504204100 82 257 3.0 5.0 0.00 0.00 0.00 41 4248.2
20260504203055 82 255 3.0 3.0 0.00 0.00 0.00 43 4248.4
20260504202054 80 313 2.0 2.0 0.00 0.00 0.00 46 4248.6
20260504201048 81 281 2.0 3.0 0.00 0.00 0.00 46 4248.6
20260504200047 82 242 5.0 7.0 0.00 0.00 0.00 45 4248.8
20260504195046 81 295 2.0 2.0 0.00 0.00 0.00 48 4249.0
20260504194043 81 246 6.0 7.0 0.00 0.00 0.00 42 4249.3
20260504193039 81 322 2.0 3.0 0.00 0.00 0.00 44 4249.0
20260504192035 82 1 3.0 5.0 0.00 0.00 0.00 44 4249.2
20260504191034 81 342 2.0 2.0 0.00 0.00 0.00 46 4249.5
20260504190032 81 270 3.0 3.0 0.00 0.00 0.00 45 4249.7
20260504185032 82 264 5.0 6.0 0.00 0.00 0.00 44 4249.7
20260504184028 80 282 3.0 5.0 0.00 0.00 0.00 46 4249.6
20260504183024 80 272 2.0 2.0 0.00 0.00 0.00 47 4249.6
20260504182024 79 275 3.0 3.0 0.00 0.00 0.00 50 4249.7
20260504181019 79 255 3.0 3.0 0.00 0.00 0.00 48 4250.0
20260504180016 78 214 3.0 3.0 0.00 0.00 0.00 48 4250.2
20260504175016 79 252 4.0 5.0 0.00 0.00 0.00 47 4250.1
20260504174016 79 254 4.0 5.0 0.00 0.00 0.00 51 4250.1
20260504173016 78 158 4.0 6.0 0.00 0.00 0.00 50 4250.4
20260504172014 78 267 3.0 5.0 0.00 0.00 0.00 49 4250.7
20260504171014 78 23 1.0 2.0 0.00 0.00 0.00 52 4250.7
20260504150952 73 238 2.0 2.0 0.00 0.00 0.00 58 4251.8
20260504140950 68 248 1.0 3.0 0.00 0.00 0.00 64 4252.3
20260504081840 57 250 1.0 2.0 0.00 0.00 0.00 73 4251.2
20260504080838 57 241 2.0 3.0 0.00 0.00 0.00 73 4251.1
20260504045808 57 214 1.0 1.0 0.00 0.00 0.00 72 4253.0
20260504044805 57 189 1.0 2.0 0.00 0.00 0.00 73 4252.9
20260504043800 57 209 0.0 0.0 0.00 0.00 0.00 72 4253.2
20260504042755 57 224 2.0 2.0 0.00 0.00 0.00 73 4252.9
20260504041753 57 229 2.0 2.0 0.00 0.00 0.00 73 4253.3
20260504040751 56 225 2.0 2.0 0.00 0.00 0.00 75 4253.3
20260504035750 56 230 1.0 1.0 0.00 0.00 0.00 75 4253.4
20260504034745 56 213 0.0 1.0 0.00 0.00 0.00 75 4253.4
20260504033745 56 211 2.0 2.0 0.00 0.00 0.00 76 4253.3
20260504032745 56 173 0.0 0.0 0.00 0.00 0.00 76 4253.3
20260504031745 56 226 2.0 2.0 0.00 0.00 0.00 76 4253.6
20260504030744 55 209 1.0 1.0 0.00 0.00 0.00 80 4253.6
20260504025744 56 193 0.0 0.0 0.00 0.00 0.00 78 4253.6
20260504024744 56 192 0.0 0.0 0.00 0.00 0.00 77 4253.7
20260504023743 57 194 0.0 0.0 0.00 0.00 0.00 76 4253.5
20260504022741 57 194 0.0 0.0 0.00 0.00 0.00 74 4253.6
20260504021740 58 195 0.0 0.0 0.00 0.00 0.00 73 4253.5
20260504020740 58 195 0.0 1.0 0.00 0.00 0.00 73 4253.4
20260504015739 59 183 0.0 0.0 0.00 0.00 0.00 70 4253.5
20260504014737 60 195 1.0 1.0 0.00 0.00 0.00 68 4253.3
20260504013737 60 204 1.0 2.0 0.00 0.00 0.00 67 4253.0
20260504012737 60 200 1.0 1.0 0.00 0.00 0.00 66 4252.8
20260504011737 61 193 0.0 0.0 0.00 0.00 0.00 63 4252.9